Vertical_Velocity
-5 -2 -1 -1 -1 -4 -3 -4 -2 6 4 -1 -0 8 3 0 -1 9 5 -1 1 -1
-4 -4 -5 0 3 2 3 3 6 4 4 6 6 5 3 4 1 -4 2 0 -0 -3
-3 -5 -4 -6 -8 -6 -1 1 1 1 2 1 -1 -3 2 -1 4 4 4 6 -3 -1
-4 -3 -2 -7 -3 -6 3 2 -2 -3 -3 -4 -3 2 0 -1 3 2 2 7 -4 1
6 4 -3 -12 -6 7 -0 -1 3 1 -2 -3 1 1 -29 0 1 2 -0 -1 5 2
1 -2 -0 -1 6 3 5 2 1 3 1 -3 -5 -1 -1 6 -3 29 6 -0 5 -1
-4 -4 -2 4 1 -5 -1 2 -2 -3 -3 4 7 3 3 1 -2 -1 3 5 -1 -6
7 3 0 -3 -3 2 -1 -1 2 2 -3 2 -14 1 2 1 -2 3 -0 3 -3 -0
-0 5 -0 2 0 -0 1 2 0 -3 -1 -2 -8 5 3 -0 0 -1 2 -2 2 3
1 -2 1 2 1 -1 2 6 2 2 3 3 1 4 5 6 6 2 0 3 3 -1
-1 4 3 6 4 3 4 3 4 2 4 3 0 3 7 1 2 3 2 4 8 5
4 4 3 3 5 3 4 2 2 2 0 -1 1 0 -2 3 4 4 6 13 0 6
-3 -1 -0 2 -1 -1 1 2 1 2 2 2 5 2 -1 1 4 2 14 -5 3 1
7 3 4 1 -3 0 1 -0 -0 1 1 1 0 3 2 6 5 7 5 4 -3 2
Height
1485 1491 1497 1502 1506 1511 1516 1520 1526 1529 1532 1536 1539 1540 1542 1543 1543 1544 1543 1544 1544 1544
1479 1485 1490 1496 1501 1506 1510 1515 1519 1522 1525 1528 1531 1532 1534 1535 1537 1537 1536 1535 1535 1536
1473 1477 1483 1488 1492 1496 1502 1506 1509 1512 1515 1518 1521 1524 1527 1528 1529 1528 1528 1526 1525 1526
1465 1470 1475 1479 1483 1487 1492 1495 1499 1502 1506 1510 1513 1516 1518 1519 1519 1518 1520 1520 1519 1521
1459 1463 1466 1469 1473 1478 1482 1487 1490 1495 1498 1502 1505 1507 1508 1509 1509 1508 1508 1510 1511 1510
1451 1455 1458 1462 1466 1470 1474 1477 1482 1487 1490 1493 1496 1499 1500 1500 1497 1492 1496 1502 1503 1503
1442 1446 1449 1455 1457 1461 1467 1471 1475 1479 1483 1485 1487 1489 1491 1492 1492 1492 1493 1494 1495 1495
1432 1437 1441 1446 1449 1453 1459 1463 1467 1472 1473 1476 1476 1479 1482 1484 1484 1485 1486 1485 1485 1486
1424 1428 1430 1436 1440 1444 1448 1452 1457 1459 1462 1464 1467 1469 1473 1474 1475 1476 1475 1475 1476 1477
1416 1420 1423 1426 1431 1434 1438 1442 1444 1447 1451 1453 1456 1459 1462 1464 1464 1465 1466 1467 1468 1470
1409 1413 1417 1420 1422 1425 1429 1433 1435 1439 1442 1445 1447 1450 1453 1454 1456 1456 1457 1460 1461 1464
1403 1407 1410 1414 1417 1420 1423 1427 1429 1432 1435 1437 1440 1442 1443 1445 1446 1448 1451 1454 1456 1459
1395 1399 1404 1407 1412 1416 1418 1420 1423 1425 1427 1429 1431 1432 1434 1437 1439 1442 1443 1448 1451 1456
1390 1394 1398 1403 1406 1409 1412 1414 1416 1418 1419 1421 1424 1426 1429 1432 1435 1436 1440 1443 1448 1453